Location: Neuvy Saint Sepulchre
(46.5953°N, 1.8122°E)
Time: 14:00:55
(UTC+02:00)

ISS - Pass Details

Date: 21 September 2022
Orbit: 414 x 417 km, 51.6° (Epoch: 01 October)

Event Time Altitude Azimuth Distance (km) Brightness Sun altitude
Rises 22:07:35 0° 281° (WNW) 2,364 1.3 -23.1°
Reaches altitude 10° 22:09:49 10° 292° (WNW) 1,501 0.1 -23.5°
Enters shadow 22:12:32 32° 343° (NNW) 749 -2.2 -23.9°
